Simultaneous Nadir Overpasses (SNOs) Predictions

Prediction of SNOs between GOES-15 and METOP-A Satellite Orbit:

Table of predicted SNOs for the next 14.0 days since TLE Epoch: 4/21/2012
Index Date Time (GOES-15) GOES-15 Lat,Lon METOP-A Lat,Lon Distance(km) Time Diff (sec)
1 04/21/2012 18:45:50 -0.12,-134.86 0.71,-138.45 409.85 80
2 04/22/2012 18:22:31 -0.12,-134.90 -0.42,-133.46 163.14 80
3 04/24/2012 06:44:12 0.12,-134.94 -0.60,-138.06 357.08 80
4 04/25/2012 06:20:54 0.13,-134.97 0.53,-133.07 215.51 80
5 04/26/2012 18:42:27 -0.13,-135.04 0.45,-137.65 296.78 80
6 04/27/2012 18:19:09 -0.14,-135.07 -0.68,-132.66 275.35 80
7 04/29/2012 06:40:50 0.13,-135.10 -0.33,-137.26 246.01 80
8 04/30/2012 06:17:32 0.14,-135.13 0.80,-132.27 325.91 80
9 05/01/2012 18:39:04
